カタログに戻る

DELTA 1 DEB

運用中LEO
NORAD 10716·DEBRIS·🇺🇸 United States

打ち上げ Jul 29, 1976 から Vandenberg Space Force Base

Loading…

次のパス (今後24時間)

TLE

最新Source: Space-Track

元期: Sep 14, 2026, 12:30 UTC

1 10716U 76077AM  26257.52117370  .00002406  00000-0  10017-1 0  9992
2 10716 102.7264 112.3773 0132178 297.4660  91.0305 12.82851006288255

AllMySatでDELTA 1 DEBをリアルタイム追跡

Download on the App Store